Weather History for Winona, MN

Change the Weather History Date:

Friday, October 31, 2014

  Actual Average Record
Temperature  
Mean Temperature 36 °F -  
Max Temperature 41 °F 51 °F 71 °F (1999)
Min Temperature 30 °F 36 °F 21 °F (1996)
Degree Days  
Heating Degree Days 30    
Moisture  
Dew Point 21 °F    
Average Humidity 58    
Maximum Humidity 80    
Minimum Humidity 42    
Precipitation  
Precipitation 0.00 in - - ()
Sea Level Pressure  
Sea Level Pressure 30.44 in    
Wind  
Wind Speed 11 mph (North)    
Max Wind Speed 21 mph    
Max Gust Speed 34 mph    
Visibility 10 miles    
Events      
Averages and records for this station are not official NWS values.
T = Trace of Precipitation, MM = Missing Value Source: NWS Daily Summary

Daily Weather History Graph

Daily Weather History Graph

Search for Another Location

Airport:

Trip Planner

Search our weather history database for the weather conditions in past years. The results will help you decide how hot, cold, wet, or windy it might be!

Date:

Astronomy

Oct. 31, 2014 Rise Set
Actual Time 7:42 AM CDT 5:58 PM CDT
Civil Twilight 7:12 AM CDT 6:28 PM CDT
Nautical Twilight 6:38 AM CDT 7:02 PM CDT
Astronomical Twilight 6:04 AM CDT 7:35 PM CDT
Moon 2:25 PM CDT (10/31) 12:16 AM CDT (10/31)
Length of Visible Light 11h 16m
Length of Day
10h 15m
First Quarter, 57% of the Moon is Illuminated
Oct 31
First Quarter
Nov 6
Full
Nov 14
Last Quarter
Nov 22
New
Nov 29
First Quarter

Hourly Weather History & Observations

Time (CDT) Temp. Windchill Dew Point Humidity Pressure Visibility Wind Dir Wind Speed Gust Speed Precip Events Conditions
12:14 AM 37.4 °F 26.9 °F 23.0 °F 56% 30.26 in 10.0 mi NNW 20.7 mph 28.8 mph N/A   Overcast
12:33 AM 35.6 °F 27.1 °F 17.6 °F 48% 30.27 in 10.0 mi North 12.7 mph 29.9 mph N/A   Mostly Cloudy
12:54 AM 35.6 °F 25.2 °F 17.6 °F 48% 30.28 in 10.0 mi NNW 18.4 mph 34.5 mph N/A   Scattered Clouds
1:13 AM 33.8 °F 23.2 °F 17.6 °F 52% 30.29 in 10.0 mi NNW 17.3 mph 23.0 mph N/A   Clear
1:34 AM 33.8 °F 25.8 °F 17.6 °F 52% 30.30 in 10.0 mi North 10.4 mph 24.2 mph N/A   Scattered Clouds
1:53 AM 33.8 °F 23.2 °F 19.4 °F 56% 30.30 in 10.0 mi NNW 17.3 mph 25.3 mph N/A   Scattered Clouds
2:13 AM 33.8 °F 23.2 °F 21.2 °F 60% 30.31 in 10.0 mi NNW 17.3 mph 26.5 mph N/A   Clear
2:34 AM 33.8 °F 25.3 °F 21.2 °F 60% 30.32 in 10.0 mi NNW 11.5 mph 19.6 mph N/A   Clear
2:53 AM 33.8 °F 24.3 °F 23.0 °F 65% 30.33 in 10.0 mi North 13.8 mph 25.3 mph N/A   Clear
3:13 AM 32.0 °F 23.0 °F 21.2 °F 64% 30.34 in 10.0 mi NNW 11.5 mph 19.6 mph N/A   Clear
3:34 AM 32.0 °F 21.6 °F 21.2 °F 64% 30.35 in 10.0 mi NNW 15.0 mph 23.0 mph N/A   Clear
3:53 AM 32.0 °F 23.0 °F 21.2 °F 64% 30.36 in 10.0 mi NNW 11.5 mph 25.3 mph N/A   Clear
4:13 AM 32.0 °F 22.1 °F 21.2 °F 64% 30.36 in 10.0 mi NNW 13.8 mph 25.3 mph N/A   Clear
4:34 AM 32.0 °F 21.6 °F 21.2 °F 64% 30.36 in 10.0 mi NNW 15.0 mph 23.0 mph N/A   Clear
4:53 AM 32.0 °F 22.1 °F 21.2 °F 64% 30.37 in 10.0 mi NNW 13.8 mph 20.7 mph N/A   Clear
5:13 AM 32.0 °F 22.5 °F 21.2 °F 64% 30.38 in 10.0 mi NNW 12.7 mph - N/A   Clear
5:34 AM 32.0 °F 22.1 °F 21.2 °F 64% 30.38 in 10.0 mi NNW 13.8 mph 18.4 mph N/A   Clear
5:53 AM 32.0 °F 21.6 °F 21.2 °F 64% 30.39 in 10.0 mi NNW 15.0 mph 20.7 mph N/A   Clear
6:13 AM 32.0 °F 23.6 °F 21.2 °F 64% 30.40 in 10.0 mi NNW 10.4 mph 19.6 mph N/A   Clear
6:34 AM 32.0 °F 23.0 °F 21.2 °F 64% 30.41 in 10.0 mi NNW 11.5 mph 23.0 mph N/A   Clear
6:53 AM 32.0 °F 22.5 °F 21.2 °F 64% 30.41 in 10.0 mi NNW 12.7 mph 17.3 mph N/A   Clear
7:14 AM 32.0 °F 22.5 °F 21.2 °F 64% 30.42 in 10.0 mi NNW 12.7 mph - N/A   Clear
7:33 AM 32.0 °F 24.8 °F 21.2 °F 64% 30.42 in 10.0 mi NNW 8.1 mph 19.6 mph N/A   Clear
7:53 AM 32.0 °F 23.0 °F 21.2 °F 64% 30.43 in 10.0 mi NNW 11.5 mph 17.3 mph N/A   Clear
8:14 AM 32.0 °F 23.0 °F 21.2 °F 64% 30.44 in 10.0 mi NNW 11.5 mph - N/A   Clear
8:33 AM 32.0 °F 23.0 °F 21.2 °F 64% 30.45 in 10.0 mi NNW 11.5 mph 17.3 mph N/A   Clear
8:54 AM 32.0 °F 24.8 °F 21.2 °F 64% 30.47 in 10.0 mi North 8.1 mph 18.4 mph N/A   Clear
9:14 AM 33.8 °F 25.3 °F 23.0 °F 65% 30.47 in 10.0 mi North 11.5 mph 19.6 mph N/A   Clear
9:33 AM 33.8 °F 26.4 °F 23.0 °F 65% 30.48 in 10.0 mi North 9.2 mph 19.6 mph N/A   Clear
9:54 AM 33.8 °F 24.8 °F 21.2 °F 60% 30.49 in 10.0 mi NNW 12.7 mph 19.6 mph N/A   Clear
10:14 AM 33.8 °F 26.4 °F 23.0 °F 65% 30.49 in 10.0 mi North 9.2 mph 17.3 mph N/A   Clear
10:33 AM 35.6 °F 27.1 °F 23.0 °F 60% 30.49 in 10.0 mi NNE 12.7 mph 21.9 mph N/A   Scattered Clouds
10:54 AM 35.6 °F 27.1 °F 23.0 °F 60% 30.49 in 10.0 mi NNE 12.7 mph 23.0 mph N/A   Scattered Clouds
11:14 AM 35.6 °F 27.1 °F 21.2 °F 56% 30.49 in 10.0 mi NNE 12.7 mph 18.4 mph N/A   Scattered Clouds
11:33 AM 35.6 °F 27.5 °F 21.2 °F 56% 30.49 in 10.0 mi NNE 11.5 mph 19.6 mph N/A   Scattered Clouds
11:54 AM 35.6 °F 28.0 °F 21.2 °F 56% 30.50 in 10.0 mi NNE 10.4 mph 23.0 mph N/A   Mostly Cloudy
12:13 PM 37.4 °F 30.3 °F 21.2 °F 52% 30.49 in 10.0 mi NNE 10.4 mph 18.4 mph N/A   Overcast
12:34 PM 37.4 °F 29.3 °F 21.2 °F 52% 30.49 in 10.0 mi ENE 12.7 mph 23.0 mph N/A   Mostly Cloudy
12:54 PM 37.4 °F 31.4 °F 21.2 °F 52% 30.49 in 10.0 mi North 8.1 mph 16.1 mph N/A   Mostly Cloudy
1:13 PM 39.2 °F 33.6 °F 21.2 °F 49% 30.49 in 10.0 mi NNW 8.1 mph 16.1 mph N/A   Mostly Cloudy
1:34 PM 37.4 °F 30.8 °F 21.2 °F 52% 30.48 in 10.0 mi NNE 9.2 mph 16.1 mph N/A   Mostly Cloudy
1:54 PM 41.0 °F 35.8 °F 21.2 °F 45% 30.47 in 10.0 mi North 8.1 mph 18.4 mph N/A   Scattered Clouds
2:13 PM 41.0 °F 35.8 °F 21.2 °F 45% 30.47 in 10.0 mi North 8.1 mph - N/A   Scattered Clouds
2:34 PM 41.0 °F 37.1 °F 19.4 °F 42% 30.46 in 10.0 mi NNE 5.8 mph - N/A   Scattered Clouds
2:54 PM 41.0 °F 33.9 °F 21.2 °F 45% 30.46 in 10.0 mi North 12.7 mph 21.9 mph N/A   Clear
3:13 PM 41.0 °F 34.7 °F 21.2 °F 45% 30.47 in 10.0 mi NNE 10.4 mph - N/A   Scattered Clouds
3:34 PM 41.0 °F 35.2 °F 19.4 °F 42% 30.46 in 10.0 mi NE 9.2 mph - N/A   Clear
3:53 PM 41.0 °F 36.4 °F 21.2 °F 45% 30.46 in 10.0 mi NNE 6.9 mph - N/A   Scattered Clouds
4:14 PM 41.0 °F 37.1 °F 21.2 °F 45% 30.47 in 10.0 mi North 5.8 mph - N/A   Scattered Clouds
4:34 PM 41.0 °F 35.8 °F 19.4 °F 42% 30.47 in 10.0 mi North 8.1 mph 16.1 mph N/A   Clear
4:53 PM 41.0 °F 37.1 °F 19.4 °F 42% 30.47 in 10.0 mi North 5.8 mph - N/A   Clear
5:13 PM 39.2 °F 35.9 °F 21.2 °F 49% 30.47 in 10.0 mi North 4.6 mph - N/A   Clear
5:29 PM 37.4 °F 31.4 °F 19.4 °F 48% 30.47 in 10.0 mi North 8.1 mph - N/A   Clear
5:34 PM 37.4 °F 32.8 °F 19.4 °F 48% 30.47 in 10.0 mi North 5.8 mph - N/A   Clear
6:15 PM 37.4 °F 33.8 °F 19.4 °F 48% 30.48 in 10.0 mi North 4.6 mph - N/A   Clear
6:35 PM 37.4 °F - 19.4 °F 48% 30.48 in 10.0 mi Calm Calm - N/A   Clear
6:52 PM 35.6 °F 31.7 °F 19.4 °F 52% 30.48 in 10.0 mi North 4.6 mph - N/A   Clear
6:53 PM 35.6 °F 32.8 °F 19.4 °F 52% 30.48 in 10.0 mi North 3.5 mph - N/A   Clear
7:14 PM 35.6 °F - 21.2 °F 56% 30.48 in 10.0 mi Calm Calm - N/A   Clear
7:34 PM 33.8 °F - 21.2 °F 60% 30.48 in 10.0 mi Calm Calm - N/A   Clear
7:53 PM 33.8 °F - 23.0 °F 65% 30.49 in 10.0 mi Calm Calm - N/A   Clear
8:14 PM 32.0 °F - 26.6 °F 80% 30.49 in 10.0 mi Calm Calm - N/A   Clear
8:34 PM 33.8 °F - 24.8 °F 70% 30.50 in 10.0 mi Calm Calm - N/A   Clear
8:53 PM 33.8 °F - 26.6 °F 75% 30.50 in 10.0 mi Calm Calm - N/A   Clear
9:14 PM 32.0 °F - 23.0 °F 69% 30.49 in 10.0 mi Calm Calm - N/A   Clear
9:33 PM 32.0 °F - 23.0 °F 69% 30.49 in 10.0 mi Calm Calm - N/A   Clear
9:54 PM 32.0 °F - 23.0 °F 69% 30.50 in 10.0 mi Calm Calm - N/A   Clear
10:14 PM 32.0 °F 28.7 °F 21.2 °F 64% 30.49 in 10.0 mi East 3.5 mph - N/A   Clear
10:33 PM 32.0 °F - 21.2 °F 64% 30.50 in 10.0 mi Calm Calm - N/A   Clear
10:54 PM 32.0 °F - 23.0 °F 69% 30.50 in 10.0 mi Calm Calm - N/A   Clear
11:14 PM 30.2 °F - 21.2 °F 69% 30.50 in 10.0 mi Calm Calm - N/A   Clear
11:33 PM 30.2 °F - 24.8 °F 80% 30.50 in 10.0 mi Calm Calm - N/A   Clear
11:54 PM 30.2 °F - 23.0 °F 75% 30.50 in 10.0 mi Calm Calm - N/A   Clear